Weather History for KNFL - December, 2011

Change the Weather History Date:

Tuesday, December 6, 2011

  Actual Average Record
Temperature  
Mean Temperature 25 °F -  
Max Temperature 43 °F 49 °F 67 °F (1981)
Min Temperature 7 °F 21 °F 5 °F (1931)
Degree Days  
Heating Degree Days 40    
Moisture  
Dew Point 6 °F    
Average Humidity 50    
Maximum Humidity 73    
Minimum Humidity 25    
Precipitation  
Precipitation 0.00 in - - ()
Sea Level Pressure  
Sea Level Pressure 30.30 in    
Wind  
Wind Speed 4 mph (East)    
Max Wind Speed 7 mph    
Max Gust Speed -    
Visibility 10 miles    
Events      
Averages and records for this station are not official NWS values.
T = Trace of Precipitation, MM = Missing Value Source: NWS Daily Summary

Daily Weather History Graph

Daily Weather History Graph

Search for Another Location

Airport or City:

Trip Planner

Search our weather history database for the weather conditions in past years. The results will help you decide how hot, cold, wet, or windy it might be!

Date:

Astronomy

Dec. 06, 2011 Rise Set
Actual Time 7:00 AM PST 4:31 PM PST
Civil Twilight 6:30 AM PST 5:01 PM PST
Nautical Twilight 5:56 AM PST 5:34 PM PST
Astronomical Twilight 5:24 AM PST 6:07 PM PST
Moon 2:00 PM PST (12/6) 3:24 AM PST (12/6)
Length of Visible Light 10h 30m
Length of Day
9h 30m
Waxing Gibbous, 87% of the Moon is Illuminated
Dec 6
Waxing Gibbous
Dec 10
Full
Dec 17
Last Quarter
Dec 24
New
Dec 31
First Quarter

Hourly Weather History & Observations

Time (PST) Temp. Windchill Dew Point Humidity Pressure Visibility Wind Dir Wind Speed Gust Speed Precip Events Conditions
12:56 AM 12.0 °F 4.1 °F 1.0 °F 61% 30.29 in 10.0 mi NE 4.6 mph - N/A   Clear
1:56 AM 10.0 °F 0.4 °F -0.0 °F 64% 30.28 in 10.0 mi SSE 5.8 mph - N/A   Clear
2:56 AM 12.9 °F 2.6 °F 1.9 °F 62% 30.28 in 10.0 mi SE 6.9 mph - N/A   Clear
3:56 AM 14.0 °F - 3.0 °F 62% 30.28 in 10.0 mi Calm Calm - N/A   Clear
4:56 AM 10.9 °F - 1.9 °F 67% 30.29 in 10.0 mi Calm Calm - N/A   Clear
5:56 AM 7.0 °F -4.5 °F -0.9 °F 70% 30.30 in 10.0 mi ENE 6.9 mph - N/A   Clear
6:23 AM 8.6 °F 0.1 °F 1.4 °F 73% 30.44 in 10.0 mi NE 4.6 mph - N/A   Partly Cloudy
6:56 AM 9.0 °F 2.4 °F 1.0 °F 70% 30.32 in 10.0 mi NE 3.5 mph - N/A   Scattered Clouds
7:56 AM 17.1 °F - 7.0 °F 65% 30.33 in 10.0 mi Calm Calm - N/A   Scattered Clouds
8:56 AM 23.0 °F 17.0 °F 9.0 °F 55% 30.34 in 10.0 mi South 4.6 mph - N/A   Scattered Clouds
9:56 AM 28.9 °F 25.2 °F 10.0 °F 45% 30.35 in 10.0 mi Variable 3.5 mph - N/A   Scattered Clouds
10:56 AM 33.1 °F - 12.0 °F 42% 30.32 in 10.0 mi Calm Calm - N/A   Mostly Cloudy
11:56 AM 37.0 °F 34.5 °F 10.9 °F 34% 30.31 in 10.0 mi Variable 3.5 mph - N/A   Mostly Cloudy
12:56 PM 41.0 °F - 10.0 °F 28% 30.29 in 10.0 mi Calm Calm - N/A   Mostly Cloudy
1:56 PM 41.0 °F - 9.0 °F 27% 30.28 in 10.0 mi Calm Calm - N/A   Mostly Cloudy
2:56 PM 43.0 °F 39.5 °F 9.0 °F 25% 30.28 in 10.0 mi NNE 5.8 mph - N/A   Mostly Cloudy
3:56 PM 39.9 °F 35.1 °F 10.0 °F 29% 30.28 in 10.0 mi NE 6.9 mph - N/A   Mostly Cloudy
4:56 PM 35.1 °F 30.1 °F 9.0 °F 34% 30.28 in 10.0 mi ENE 5.8 mph - N/A   Scattered Clouds
5:56 PM 28.9 °F 25.2 °F 9.0 °F 43% 30.28 in 10.0 mi ENE 3.5 mph - N/A   Partly Cloudy
6:56 PM 25.0 °F 20.7 °F 6.1 °F 45% 30.29 in 10.0 mi ENE 3.5 mph - N/A   Clear
7:56 PM 25.0 °F - 5.0 °F 43% 30.29 in 10.0 mi Calm Calm - N/A   Clear
8:56 PM 24.1 °F 19.7 °F 6.1 °F 46% 30.30 in 10.0 mi South 3.5 mph - N/A   Clear
9:56 PM 23.0 °F 14.7 °F 3.9 °F 44% 30.30 in 10.0 mi SSE 6.9 mph - N/A   Clear
10:56 PM 19.9 °F 11.1 °F 5.0 °F 52% 30.30 in 10.0 mi South 6.9 mph - N/A   Clear
11:56 PM 21.0 °F 16.2 °F 8.1 °F 57% 30.30 in 10.0 mi South 3.5 mph - N/A   Clear